Location: Austin
(30.3000°N, 97.7500°W)
Time: 04:25:26
(UTC-06:00)

Cosmos 158 Rocket - Pass Details

Date: 05 February 2026
Orbit: 695 x 785 km, 74.0° (Epoch: 15 February)

Event Time Altitude Azimuth Distance (km) Brightness Sun altitude
Exits shadow 05:43:49 - 349° (N) 2,637 6.6 -20.9°
Reaches altitude 10° 05:44:54 10° 351° (N) 2,213 6.2 -20.7°
Maximum altitude 05:49:53 66° 73° (ENE) 803 4.3 -19.6°
Drops below altitude 10° 05:54:57 10° 155° (SSE) 2,261 6.8 -18.5°
Sets 05:57:21 0° 158° (SSE) 3,196 7.6 -18.0°
